Time,TemperatureF,DewpointF,PressureIn,WindDirection,WindDirectionDegrees,WindSpeedMPH,WindSpeedGustMPH,Humidity,HourlyPrecipIn,Conditions,Clouds,dailyrainin,SoftwareType,DateUTC
2013-01-05 00:00:00,35.8,21.3,30.35,West,265,4.0,5.0,55,0.00,,,0.00,WUHU216HW,2013-01-05 05:00:00,
2013-01-05 00:01:00,35.8,21.3,30.35,West,270,4.0,5.0,55,0.00,,,0.00,WUHU216HW,2013-01-05 05:01:00,
2013-01-05 00:06:00,35.6,20.6,30.35,SSW,203,2.0,5.0,54,0.00,,,0.00,WUHU216HW,2013-01-05 05:06:00,
2013-01-05 00:11:00,35.6,21.1,30.35,WSW,248,4.0,5.0,55,0.00,,,0.00,WUHU216HW,2013-01-05 05:11:00,
2013-01-05 00:16:00,35.6,21.1,30.35,West,269,3.0,4.0,55,0.00,,,0.00,WUHU216HW,2013-01-05 05:16:00,
2013-01-05 00:21:00,35.6,21.1,30.35,South,180,3.0,4.0,55,0.00,,,0.00,WUHU216HW,2013-01-05 05:21:00,
2013-01-05 00:26:00,35.6,21.5,30.35,West,262,3.0,6.0,56,0.00,,,0.00,WUHU216HW,2013-01-05 05:26:00,
2013-01-05 00:31:00,35.6,21.1,30.35,West,276,3.0,6.0,55,0.00,,,0.00,WUHU216HW,2013-01-05 05:31:00,
2013-01-05 00:36:00,35.6,21.5,30.35,West,270,7.0,7.0,56,0.00,,,0.00,WUHU216HW,2013-01-05 05:36:00,
2013-01-05 00:41:00,35.6,21.1,30.34,WSW,255,4.0,7.0,55,0.00,,,0.00,WUHU216HW,2013-01-05 05:41:00,
2013-01-05 00:46:00,35.6,21.5,30.35,NW,315,4.0,6.0,56,0.00,,,0.00,WUHU216HW,2013-01-05 05:46:00,
2013-01-05 00:51:00,35.5,21.3,30.35,WNW,282,4.0,6.0,56,0.00,,,0.00,WUHU216HW,2013-01-05 05:51:00,
2013-01-05 00:56:00,35.6,21.1,30.35,WNW,286,3.0,6.0,55,0.00,,,0.00,WUHU216HW,2013-01-05 05:56:00,
2013-01-05 01:01:00,35.5,21.3,30.35,WSW,244,4.0,6.0,56,0.00,,,0.00,WUHU216HW,2013-01-05 06:01:00,
2013-01-05 01:06:00,35.5,21.3,30.35,WSW,248,5.0,6.0,56,0.00,,,0.00,WUHU216HW,2013-01-05 06:06:00,
2013-01-05 01:11:00,35.3,21.2,30.35,WNW,293,5.0,6.0,56,0.00,,,0.00,WUHU216HW,2013-01-05 06:11:00,
2013-01-05 01:16:00,35.3,21.6,30.34,NNW,338,4.0,6.0,57,0.00,,,0.00,WUHU216HW,2013-01-05 06:16:00,
2013-01-05 01:21:00,35.1,21.4,30.35,West,263,4.0,6.0,57,0.00,,,0.00,WUHU216HW,2013-01-05 06:21:00,
2013-01-05 01:26:00,34.9,20.8,30.35,West,270,4.0,6.0,56,0.00,,,0.00,WUHU216HW,2013-01-05 06:26:00,
2013-01-05 01:31:00,34.9,21.3,30.35,SW,225,5.0,6.0,57,0.00,,,0.00,WUHU216HW,2013-01-05 06:31:00,
2013-01-05 01:36:00,34.9,20.8,30.35,WNW,293,4.0,6.0,56,0.00,,,0.00,WUHU216HW,2013-01-05 06:36:00,
2013-01-05 01:41:00,34.9,20.8,30.35,NW,315,5.0,6.0,56,0.00,,,0.00,WUHU216HW,2013-01-05 06:41:00,
2013-01-05 01:46:00,35.1,21.0,30.35,WNW,297,5.0,7.0,56,0.00,,,0.00,WUHU216HW,2013-01-05 06:46:00,
2013-01-05 01:51:00,35.3,21.2,30.35,WNW,295,4.0,7.0,56,0.00,,,0.00,WUHU216HW,2013-01-05 06:51:00,
2013-01-05 01:56:00,35.1,21.4,30.36,WNW,297,2.0,6.0,57,0.00,,,0.00,WUHU216HW,2013-01-05 06:56:00,
2013-01-05 02:01:00,34.9,20.8,30.36,West,270,5.0,6.0,56,0.00,,,0.00,WUHU216HW,2013-01-05 07:01:00,
2013-01-05 02:06:00,34.9,20.3,30.37,West,270,3.0,6.0,55,0.00,,,0.00,WUHU216HW,2013-01-05 07:06:00,
2013-01-05 02:11:00,35.3,21.2,30.37,NNE,16,2.0,6.0,56,0.00,,,0.00,WUHU216HW,2013-01-05 07:11:00,
2013-01-05 02:16:00,35.1,20.5,30.38,WSW,248,3.0,4.0,55,0.00,,,0.00,WUHU216HW,2013-01-05 07:16:00,
2013-01-05 02:21:00,34.9,20.8,30.38,NW,323,2.0,3.0,56,0.00,,,0.00,WUHU216HW,2013-01-05 07:21:00,
2013-01-05 02:26:00,34.9,20.3,30.38,SE,135,2.0,4.0,55,0.00,,,0.00,WUHU216HW,2013-01-05 07:26:00,
2013-01-05 02:31:00,34.9,20.8,30.38,NE,39,2.0,6.0,56,0.00,,,0.00,WUHU216HW,2013-01-05 07:31:00,
2013-01-05 02:36:00,34.9,20.3,30.39,ESE,113,4.0,6.0,55,0.00,,,0.00,WUHU216HW,2013-01-05 07:36:00,
2013-01-05 02:41:00,35.1,20.5,30.40,SE,135,4.0,5.0,55,0.00,,,0.00,WUHU216HW,2013-01-05 07:41:00,
2013-01-05 02:46:00,34.9,20.8,30.40,South,180,5.0,5.0,56,0.00,,,0.00,WUHU216HW,2013-01-05 07:46:00,
2013-01-05 02:51:00,34.9,20.8,30.40,East,90,6.0,6.0,56,0.00,,,0.00,WUHU216HW,2013-01-05 07:51:00,
2013-01-05 02:56:00,34.9,20.8,30.40,NNE,23,5.0,6.0,56,0.00,,,0.00,WUHU216HW,2013-01-05 07:56:00,
2013-01-05 03:01:00,34.9,20.8,30.40,SE,124,2.0,8.0,56,0.00,,,0.00,WUHU216HW,2013-01-05 08:01:00,
2013-01-05 03:06:00,34.6,20.4,30.41,SSE,147,2.0,8.0,56,0.00,,,0.00,WUHU216HW,2013-01-05 08:06:00,
2013-01-05 03:11:00,34.6,20.4,30.41,North,350,3.0,6.0,56,0.00,,,0.00,WUHU216HW,2013-01-05 08:11:00,
2013-01-05 03:16:00,34.6,20.4,30.41,East,85,4.0,7.0,56,0.00,,,0.00,WUHU216HW,2013-01-05 08:16:00,
2013-01-05 03:21:00,34.6,20.4,30.41,South,180,5.0,12.0,56,0.00,,,0.00,WUHU216HW,2013-01-05 08:21:00,
2013-01-05 03:26:00,34.6,20.4,30.42,East,99,3.0,12.0,56,0.00,,,0.00,WUHU216HW,2013-01-05 08:26:00,
2013-01-05 03:31:00,34.6,20.9,30.42,SSE,158,4.0,6.0,57,0.00,,,0.00,WUHU216HW,2013-01-05 08:31:00,
2013-01-05 03:36:00,34.2,20.5,30.42,NNE,33,3.0,5.0,57,0.00,,,0.00,WUHU216HW,2013-01-05 08:36:00,
2013-01-05 03:41:00,34.2,20.9,30.43,SE,130,2.0,6.0,58,0.00,,,0.00,WUHU216HW,2013-01-05 08:41:00,
2013-01-05 03:46:00,34.0,20.7,30.43,North,350,3.0,6.0,58,0.00,,,0.00,WUHU216HW,2013-01-05 08:46:00,
2013-01-05 03:51:00,34.0,20.7,30.43,NW,325,1.0,6.0,58,0.00,,,0.00,WUHU216HW,2013-01-05 08:51:00,
2013-01-05 03:56:00,33.8,20.5,30.42,NW,315,6.0,6.0,58,0.00,,,0.00,WUHU216HW,2013-01-05 08:56:00,
2013-01-05 04:01:00,33.8,21.0,30.42,NE,45,3.0,6.0,59,0.00,,,0.00,WUHU216HW,2013-01-05 09:01:00,
2013-01-05 04:06:00,33.8,21.0,30.42,SSE,158,4.0,8.0,59,0.00,,,0.00,WUHU216HW,2013-01-05 09:06:00,
2013-01-05 04:11:00,33.8,21.0,30.42,ENE,65,4.0,8.0,59,0.00,,,0.00,WUHU216HW,2013-01-05 09:11:00,
2013-01-05 04:16:00,33.8,21.0,30.42,NNE,23,2.0,7.0,59,0.00,,,0.00,WUHU216HW,2013-01-05 09:16:00,
2013-01-05 04:21:00,33.8,21.0,30.43,West,274,3.0,4.0,59,0.00,,,0.00,WUHU216HW,2013-01-05 09:21:00,
2013-01-05 04:26:00,33.7,20.8,30.43,South,180,5.0,5.0,59,0.00,,,0.00,WUHU216HW,2013-01-05 09:26:00,
2013-01-05 04:31:00,33.7,20.8,30.43,SE,143,5.0,8.0,59,0.00,,,0.00,WUHU216HW,2013-01-05 09:31:00,
2013-01-05 04:36:00,33.5,20.7,30.43,WNW,282,2.0,8.0,59,0.00,,,0.00,WUHU216HW,2013-01-05 09:36:00,
2013-01-05 04:41:00,33.5,21.1,30.43,West,279,4.0,8.0,60,0.00,,,0.00,WUHU216HW,2013-01-05 09:41:00,
2013-01-05 04:46:00,33.3,21.0,30.43,SSW,206,2.0,8.0,60,0.00,,,0.00,WUHU216HW,2013-01-05 09:46:00,
2013-01-05 04:51:00,33.3,21.0,30.43,WNW,293,7.0,7.0,60,0.00,,,0.00,WUHU216HW,2013-01-05 09:51:00,
2013-01-05 04:56:00,33.5,20.7,30.44,North,352,3.0,10.0,59,0.00,,,0.00,WUHU216HW,2013-01-05 09:56:00,
2013-01-05 05:01:00,33.5,20.7,30.43,NW,315,2.0,10.0,59,0.00,,,0.00,WUHU216HW,2013-01-05 10:01:00,
2013-01-05 05:06:00,33.5,21.1,30.44,NW,315,4.0,5.0,60,0.00,,,0.00,WUHU216HW,2013-01-05 10:06:00,
2013-01-05 05:11:00,33.3,21.0,30.45,North,0,4.0,6.0,60,0.00,,,0.00,WUHU216HW,2013-01-05 10:11:00,
2013-01-05 05:16:00,33.3,21.0,30.45,West,273,4.0,6.0,60,0.00,,,0.00,WUHU216HW,2013-01-05 10:16:00,
2013-01-05 05:21:00,33.3,21.0,30.45,NW,315,7.0,7.0,60,0.00,,,0.00,WUHU216HW,2013-01-05 10:21:00,
2013-01-05 05:26:00,33.3,21.0,30.45,NNW,338,3.0,10.0,60,0.00,,,0.00,WUHU216HW,2013-01-05 10:26:00,
2013-01-05 05:31:00,33.3,21.0,30.45,NW,321,3.0,10.0,60,0.00,,,0.00,WUHU216HW,2013-01-05 10:31:00,
2013-01-05 05:36:00,33.1,20.8,30.45,East,90,5.0,8.0,60,0.00,,,0.00,WUHU216HW,2013-01-05 10:36:00,
2013-01-05 05:41:00,33.1,20.8,30.45,WNW,293,4.0,8.0,60,0.00,,,0.00,WUHU216HW,2013-01-05 10:41:00,
2013-01-05 05:46:00,33.1,20.8,30.46,West,276,4.0,9.0,60,0.00,,,0.00,WUHU216HW,2013-01-05 10:46:00,
2013-01-05 05:51:00,33.1,21.2,30.46,SW,225,5.0,9.0,61,0.00,,,0.00,WUHU216HW,2013-01-05 10:51:00,
2013-01-05 05:56:00,32.9,21.0,30.46,WSW,252,4.0,8.0,61,0.00,,,0.00,WUHU216HW,2013-01-05 10:56:00,
2013-01-05 06:01:00,32.9,21.0,30.46,West,272,3.0,7.0,61,0.00,,,0.00,WUHU216HW,2013-01-05 11:01:00,
2013-01-05 06:06:00,32.9,21.0,30.47,ESE,113,3.0,6.0,61,0.00,,,0.00,WUHU216HW,2013-01-05 11:06:00,
2013-01-05 06:11:00,32.9,21.0,30.47,West,262,3.0,6.0,61,0.00,,,0.00,WUHU216HW,2013-01-05 11:11:00,
2013-01-05 06:16:00,32.9,21.0,30.48,West,264,5.0,8.0,61,0.00,,,0.00,WUHU216HW,2013-01-05 11:16:00,
2013-01-05 06:21:00,32.9,21.0,30.48,NW,315,3.0,8.0,61,0.00,,,0.00,WUHU216HW,2013-01-05 11:21:00,
2013-01-05 06:26:00,32.8,20.8,30.49,WNW,296,4.0,5.0,61,0.00,,,0.00,WUHU216HW,2013-01-05 11:26:00,
2013-01-05 06:31:00,32.8,20.8,30.49,WNW,293,2.0,5.0,61,0.00,,,0.00,WUHU216HW,2013-01-05 11:31:00,
2013-01-05 06:36:00,32.8,20.8,30.50,WNW,297,2.0,5.0,61,0.00,,,0.00,WUHU216HW,2013-01-05 11:36:00,
2013-01-05 06:41:00,32.6,21.0,30.50,WNW,293,2.0,5.0,62,0.00,,,0.00,WUHU216HW,2013-01-05 11:41:00,
2013-01-05 06:46:00,32.4,20.9,30.49,West,270,3.0,4.0,62,0.00,,,0.00,WUHU216HW,2013-01-05 11:46:00,
2013-01-05 06:51:00,32.4,20.9,30.50,WNW,288,2.0,4.0,62,0.00,,,0.00,WUHU216HW,2013-01-05 11:51:00,
2013-01-05 06:56:00,32.4,20.9,30.50,NW,315,1.0,4.0,62,0.00,,,0.00,WUHU216HW,2013-01-05 11:56:00,
2013-01-05 07:01:00,32.4,20.9,30.50,SW,225,1.0,4.0,62,0.00,,,0.00,WUHU216HW,2013-01-05 12:01:00,
2013-01-05 07:06:00,32.2,20.7,30.51,South,180,2.0,3.0,62,0.00,,,0.00,WUHU216HW,2013-01-05 12:06:00,
2013-01-05 07:11:00,32.2,20.7,30.51,WNW,290,1.0,3.0,62,0.00,,,0.00,WUHU216HW,2013-01-05 12:11:00,
2013-01-05 07:16:00,32.4,20.9,30.50,WSW,248,1.0,3.0,62,0.00,,,0.00,WUHU216HW,2013-01-05 12:16:00,
2013-01-05 07:21:00,32.4,20.9,30.51,South,186,2.0,4.0,62,0.00,,,0.00,WUHU216HW,2013-01-05 12:21:00,
2013-01-05 07:26:00,32.2,20.7,30.51,South,180,2.0,4.0,62,0.00,,,0.00,WUHU216HW,2013-01-05 12:26:00,
2013-01-05 07:31:00,32.2,20.7,30.51,NE,45,0.0,5.0,62,0.00,,,0.00,WUHU216HW,2013-01-05 12:31:00,
2013-01-05 07:36:00,32.2,20.7,30.51,NNW,338,1.0,5.0,62,0.00,,,0.00,WUHU216HW,2013-01-05 12:36:00,
2013-01-05 07:41:00,32.2,20.7,30.51,NW,315,1.0,3.0,62,0.00,,,0.00,WUHU216HW,2013-01-05 12:41:00,
2013-01-05 07:46:00,32.2,20.7,30.51,West,270,2.0,3.0,62,0.00,,,0.00,WUHU216HW,2013-01-05 12:46:00,
2013-01-05 07:51:00,32.0,20.5,30.51,NW,315,0.0,2.0,62,0.00,,,0.00,WUHU216HW,2013-01-05 12:51:00,
2013-01-05 07:56:00,32.0,20.5,30.51,NW,315,1.0,2.0,62,0.00,,,0.00,WUHU216HW,2013-01-05 12:56:00,
2013-01-05 08:01:00,32.0,20.5,30.51,NNW,331,1.0,2.0,62,0.00,,,0.00,WUHU216HW,2013-01-05 13:01:00,
2013-01-05 08:06:00,32.0,20.9,30.51,NNW,338,2.0,3.0,63,0.00,,,0.00,WUHU216HW,2013-01-05 13:06:00,
2013-01-05 08:11:00,32.0,20.9,30.52,SSW,199,2.0,3.0,63,0.00,,,0.00,WUHU216HW,2013-01-05 13:11:00,
2013-01-05 08:16:00,32.0,20.9,30.52,NE,45,1.0,3.0,63,0.00,,,0.00,WUHU216HW,2013-01-05 13:16:00,
2013-01-05 08:21:00,32.0,20.9,30.53,SSW,203,2.0,3.0,63,0.00,,,0.00,WUHU216HW,2013-01-05 13:21:00,
2013-01-05 08:26:00,32.0,20.9,30.53,West,274,2.0,4.0,63,0.00,,,0.00,WUHU216HW,2013-01-05 13:26:00,
2013-01-05 08:31:00,32.0,20.9,30.54,WNW,301,1.0,4.0,63,0.00,,,0.00,WUHU216HW,2013-01-05 13:31:00,
2013-01-05 08:36:00,32.0,20.9,30.54,West,270,2.0,2.0,63,0.00,,,0.00,WUHU216HW,2013-01-05 13:36:00,
2013-01-05 08:41:00,32.0,20.9,30.54,WNW,290,1.0,2.0,63,0.00,,,0.00,WUHU216HW,2013-01-05 13:41:00,
2013-01-05 08:46:00,32.0,20.9,30.55,WNW,293,1.0,2.0,63,0.00,,,0.00,WUHU216HW,2013-01-05 13:46:00,
2013-01-05 08:51:00,32.2,21.1,30.55,WSW,241,1.0,2.0,63,0.00,,,0.00,WUHU216HW,2013-01-05 13:51:00,
2013-01-05 08:56:00,32.4,21.3,30.55,West,270,0.0,2.0,63,0.00,,,0.00,WUHU216HW,2013-01-05 13:56:00,
2013-01-05 09:01:00,32.6,21.3,30.55,NNW,338,0.0,1.0,63,0.00,,,0.00,WUHU216HW,2013-01-05 14:01:00,
2013-01-05 09:06:00,32.8,21.2,30.55,West,270,1.0,2.0,62,0.00,,,0.00,WUHU216HW,2013-01-05 14:06:00,
2013-01-05 09:11:00,32.9,21.4,30.54,North,0,0.0,2.0,62,0.00,,,0.00,WUHU216HW,2013-01-05 14:11:00,
2013-01-05 09:16:00,33.1,21.5,30.54,SE,135,2.0,2.0,62,0.00,,,0.00,WUHU216HW,2013-01-05 14:16:00,
2013-01-05 09:21:00,33.3,21.7,30.53,WNW,293,0.0,2.0,62,0.00,,,0.00,WUHU216HW,2013-01-05 14:21:00,
2013-01-05 09:26:00,33.5,21.8,30.53,NE,50,1.0,2.0,62,0.00,,,0.00,WUHU216HW,2013-01-05 14:26:00,
2013-01-05 09:31:00,33.8,22.1,30.52,West,270,1.0,2.0,62,0.00,,,0.00,WUHU216HW,2013-01-05 14:31:00,
2013-01-05 09:36:00,34.2,22.5,30.52,WSW,248,0.0,2.0,62,0.00,,,0.00,WUHU216HW,2013-01-05 14:36:00,
2013-01-05 09:41:00,34.4,22.0,30.52,SE,135,2.0,2.0,60,0.00,,,0.00,WUHU216HW,2013-01-05 14:41:00,
2013-01-05 09:46:00,34.6,22.1,30.53,West,270,0.0,3.0,60,0.00,,,0.00,WUHU216HW,2013-01-05 14:46:00,
2013-01-05 09:51:00,34.9,22.5,30.52,WSW,247,1.0,3.0,60,0.00,,,0.00,WUHU216HW,2013-01-05 14:51:00,
2013-01-05 09:56:00,35.3,22.9,30.53,West,274,1.0,3.0,60,0.00,,,0.00,WUHU216HW,2013-01-05 14:56:00,
2013-01-05 10:01:00,35.3,22.9,30.54,West,270,2.0,2.0,60,0.00,,,0.00,WUHU216HW,2013-01-05 15:01:00,
2013-01-05 10:06:00,35.6,23.2,30.54,West,270,0.0,2.0,60,0.00,,,0.00,WUHU216HW,2013-01-05 15:06:00,
2013-01-05 10:11:00,35.6,22.8,30.55,West,264,1.0,2.0,59,0.00,,,0.00,WUHU216HW,2013-01-05 15:11:00,
2013-01-05 10:16:00,36.0,23.1,30.56,WNW,293,0.0,2.0,59,0.00,,,0.00,WUHU216HW,2013-01-05 15:16:00,
2013-01-05 10:21:00,36.4,23.4,30.56,ESE,113,0.0,2.0,59,0.00,,,0.00,WUHU216HW,2013-01-05 15:21:00,
2013-01-05 10:26:00,36.7,23.3,30.56,West,263,1.0,1.0,58,0.00,,,0.00,WUHU216HW,2013-01-05 15:26:00,
2013-01-05 10:31:00,37.1,23.7,30.57,West,261,1.0,1.0,58,0.00,,,0.00,WUHU216HW,2013-01-05 15:31:00,
2013-01-05 10:36:00,37.4,23.6,30.56,SE,135,1.0,1.0,57,0.00,,,0.00,WUHU216HW,2013-01-05 15:36:00,
2013-01-05 10:41:00,37.6,23.3,30.56,West,270,1.0,1.0,56,0.00,,,0.00,WUHU216HW,2013-01-05 15:41:00,
2013-01-05 10:46:00,37.8,23.4,30.56,West,279,1.0,3.0,56,0.00,,,0.00,WUHU216HW,2013-01-05 15:46:00,
2013-01-05 10:51:00,38.0,23.6,30.56,West,270,2.0,3.0,56,0.00,,,0.00,WUHU216HW,2013-01-05 15:51:00,
2013-01-05 10:56:00,38.2,22.9,30.56,West,275,2.0,3.0,54,0.00,,,0.00,WUHU216HW,2013-01-05 15:56:00,
2013-01-05 11:01:00,38.0,23.1,30.56,NW,315,1.0,3.0,55,0.00,,,0.00,WUHU216HW,2013-01-05 16:01:00,
2013-01-05 11:06:00,38.2,22.9,30.56,SSE,158,2.0,2.0,54,0.00,,,0.00,WUHU216HW,2013-01-05 16:06:00,
2013-01-05 11:11:00,38.5,23.2,30.56,NW,315,2.0,3.0,54,0.00,,,0.00,WUHU216HW,2013-01-05 16:11:00,
2013-01-05 11:16:00,38.5,23.2,30.56,SSW,211,1.0,3.0,54,0.00,,,0.00,WUHU216HW,2013-01-05 16:16:00,
2013-01-05 11:21:00,38.9,23.6,30.56,East,90,0.0,2.0,54,0.00,,,0.00,WUHU216HW,2013-01-05 16:21:00,
2013-01-05 11:26:00,39.1,23.7,30.55,WNW,295,1.0,2.0,54,0.00,,,0.00,WUHU216HW,2013-01-05 16:26:00,
2013-01-05 11:31:00,39.4,23.6,30.54,SSE,158,1.0,3.0,53,0.00,,,0.00,WUHU216HW,2013-01-05 16:31:00,
2013-01-05 11:36:00,39.6,23.8,30.55,SW,225,0.0,3.0,53,0.00,,,0.00,WUHU216HW,2013-01-05 16:36:00,
2013-01-05 11:41:00,40.0,23.7,30.54,West,267,1.0,2.0,52,0.00,,,0.00,WUHU216HW,2013-01-05 16:41:00,
2013-01-05 11:46:00,40.0,22.8,30.55,SW,225,3.0,3.0,50,0.00,,,0.00,WUHU216HW,2013-01-05 16:46:00,
2013-01-05 11:51:00,40.1,23.0,30.55,West,275,2.0,3.0,50,0.00,,,0.00,WUHU216HW,2013-01-05 16:51:00,
2013-01-05 11:56:00,40.1,23.9,30.54,West,270,1.0,3.0,52,0.00,,,0.00,WUHU216HW,2013-01-05 16:56:00,
2013-01-05 12:01:00,40.3,24.0,30.53,NW,315,0.0,3.0,52,0.00,,,0.00,WUHU216HW,2013-01-05 17:01:00,
2013-01-05 12:06:00,40.5,23.8,30.53,SW,225,1.0,2.0,51,0.00,,,0.00,WUHU216HW,2013-01-05 17:06:00,
2013-01-05 12:11:00,40.7,23.9,30.53,SSW,212,1.0,2.0,51,0.00,,,0.00,WUHU216HW,2013-01-05 17:11:00,
2013-01-05 12:16:00,41.2,24.4,30.53,SW,232,1.0,2.0,51,0.00,,,0.00,WUHU216HW,2013-01-05 17:16:00,
2013-01-05 12:21:00,41.6,24.3,30.52,South,180,1.0,2.0,50,0.00,,,0.00,WUHU216HW,2013-01-05 17:21:00,
2013-01-05 12:26:00,41.8,24.5,30.52,West,270,2.0,2.0,50,0.00,,,0.00,WUHU216HW,2013-01-05 17:26:00,
2013-01-05 12:31:00,41.8,24.5,30.51,WNW,293,2.0,2.0,50,0.00,,,0.00,WUHU216HW,2013-01-05 17:31:00,
2013-01-05 12:36:00,42.1,24.3,30.51,WNW,293,1.0,2.0,49,0.00,,,0.00,WUHU216HW,2013-01-05 17:36:00,
2013-01-05 12:41:00,42.7,24.8,30.51,West,275,1.0,2.0,49,0.00,,,0.00,WUHU216HW,2013-01-05 17:41:00,
2013-01-05 12:46:00,43.4,26.0,30.51,NNW,338,0.0,2.0,50,0.00,,,0.00,WUHU216HW,2013-01-05 17:46:00,
2013-01-05 12:51:00,43.6,25.1,30.50,West,272,1.0,2.0,48,0.00,,,0.00,WUHU216HW,2013-01-05 17:51:00,
2013-01-05 12:56:00,43.7,25.3,30.50,WNW,285,1.0,2.0,48,0.00,,,0.00,WUHU216HW,2013-01-05 17:56:00,
2013-01-05 13:01:00,44.1,25.7,30.50,SSE,158,1.0,2.0,48,0.00,,,0.00,WUHU216HW,2013-01-05 18:01:00,
2013-01-05 13:06:00,44.3,24.7,30.49,West,270,1.0,2.0,46,0.00,,,0.00,WUHU216HW,2013-01-05 18:06:00,
2013-01-05 13:11:00,44.5,24.8,30.50,WNW,293,1.0,2.0,46,0.00,,,0.00,WUHU216HW,2013-01-05 18:11:00,
2013-01-05 13:16:00,44.6,25.6,30.49,WSW,248,3.0,3.0,47,0.00,,,0.00,WUHU216HW,2013-01-05 18:16:00,
2013-01-05 13:21:00,44.6,25.0,30.49,WNW,290,1.0,4.0,46,0.00,,,0.00,WUHU216HW,2013-01-05 18:21:00,
2013-01-05 13:26:00,44.6,25.0,30.48,West,278,1.0,4.0,46,0.00,,,0.00,WUHU216HW,2013-01-05 18:26:00,
2013-01-05 13:31:00,45.0,25.4,30.48,SSW,203,1.0,2.0,46,0.00,,,0.00,WUHU216HW,2013-01-05 18:31:00,
2013-01-05 13:36:00,45.0,25.4,30.48,West,270,0.0,2.0,46,0.00,,,0.00,WUHU216HW,2013-01-05 18:36:00,
2013-01-05 13:41:00,44.6,25.0,30.47,ENE,68,0.0,1.0,46,0.00,,,0.00,WUHU216HW,2013-01-05 18:41:00,
2013-01-05 13:46:00,44.3,24.7,30.47,South,180,0.0,1.0,46,0.00,,,0.00,WUHU216HW,2013-01-05 18:46:00,
2013-01-05 13:51:00,44.5,24.3,30.47,SSW,203,0.0,1.0,45,0.00,,,0.00,WUHU216HW,2013-01-05 18:51:00,
2013-01-05 13:56:00,44.5,24.8,30.47,SE,135,3.0,3.0,46,0.00,,,0.00,WUHU216HW,2013-01-05 18:56:00,
2013-01-05 14:01:00,44.6,24.5,30.47,SE,132,1.0,3.0,45,0.00,,,0.00,WUHU216HW,2013-01-05 19:01:00,
2013-01-05 14:06:00,44.8,24.7,30.48,West,267,1.0,3.0,45,0.00,,,0.00,WUHU216HW,2013-01-05 19:06:00,
2013-01-05 14:11:00,45.2,24.9,30.47,SSW,203,1.0,2.0,45,0.00,,,0.00,WUHU216HW,2013-01-05 19:11:00,
2013-01-05 14:16:00,45.5,24.2,30.47,West,264,1.0,2.0,43,0.00,,,0.00,WUHU216HW,2013-01-05 19:16:00,
2013-01-05 14:21:00,45.9,25.7,30.47,SSW,203,2.0,2.0,45,0.00,,,0.00,WUHU216HW,2013-01-05 19:21:00,
2013-01-05 14:26:00,46.3,25.4,30.47,WNW,293,0.0,2.0,44,0.00,,,0.00,WUHU216HW,2013-01-05 19:26:00,
2013-01-05 14:31:00,46.3,24.8,30.47,SSE,158,0.0,2.0,43,0.00,,,0.00,WUHU216HW,2013-01-05 19:31:00,
2013-01-05 14:36:00,46.4,25.6,30.47,West,270,1.0,1.0,44,0.00,,,0.00,WUHU216HW,2013-01-05 19:36:00,
2013-01-05 14:41:00,46.4,25.0,30.47,West,270,0.0,1.0,43,0.00,,,0.00,WUHU216HW,2013-01-05 19:41:00,
2013-01-05 14:46:00,46.4,25.6,30.47,NW,315,0.0,1.0,44,0.00,,,0.00,WUHU216HW,2013-01-05 19:46:00,
2013-01-05 14:51:00,46.6,25.2,30.47,WNW,293,0.0,1.0,43,0.00,,,0.00,WUHU216HW,2013-01-05 19:51:00,
2013-01-05 14:56:00,46.4,25.0,30.46,NW,315,0.0,0.0,43,0.00,,,0.00,WUHU216HW,2013-01-05 19:56:00,
2013-01-05 15:01:00,46.4,25.0,30.46,NW,315,0.0,0.0,43,0.00,,,0.00,WUHU216HW,2013-01-05 20:01:00,
2013-01-05 15:06:00,46.4,24.5,30.47,NNE,23,0.0,0.0,42,0.00,,,0.00,WUHU216HW,2013-01-05 20:06:00,
2013-01-05 15:11:00,46.1,24.1,30.46,West,270,0.0,1.0,42,0.00,,,0.00,WUHU216HW,2013-01-05 20:11:00,
2013-01-05 15:16:00,46.3,24.8,30.46,SSE,158,1.0,1.0,43,0.00,,,0.00,WUHU216HW,2013-01-05 20:16:00,
2013-01-05 15:21:00,46.4,25.0,30.46,South,180,1.0,3.0,43,0.00,,,0.00,WUHU216HW,2013-01-05 20:21:00,
2013-01-05 15:26:00,46.1,24.7,30.46,South,180,1.0,3.0,43,0.00,,,0.00,WUHU216HW,2013-01-05 20:26:00,
2013-01-05 15:31:00,45.7,24.4,30.46,SSW,203,1.0,2.0,43,0.00,,,0.00,WUHU216HW,2013-01-05 20:31:00,
2013-01-05 15:36:00,45.0,23.8,30.46,SSW,203,1.0,2.0,43,0.00,,,0.00,WUHU216HW,2013-01-05 20:36:00,
2013-01-05 15:41:00,44.6,23.9,30.46,SSW,203,0.0,2.0,44,0.00,,,0.00,WUHU216HW,2013-01-05 20:41:00,
2013-01-05 15:46:00,44.6,23.4,30.47,SW,225,1.0,1.0,43,0.00,,,0.00,WUHU216HW,2013-01-05 20:46:00,
2013-01-05 15:51:00,44.5,23.8,30.47,South,180,0.0,1.0,44,0.00,,,0.00,WUHU216HW,2013-01-05 20:51:00,
2013-01-05 15:56:00,44.3,23.6,30.47,South,182,1.0,2.0,44,0.00,,,0.00,WUHU216HW,2013-01-05 20:56:00,
2013-01-05 16:01:00,44.5,23.8,30.47,SSW,203,0.0,2.0,44,0.00,,,0.00,WUHU216HW,2013-01-05 21:01:00,
2013-01-05 16:06:00,44.6,24.5,30.47,NE,45,0.0,1.0,45,0.00,,,0.00,WUHU216HW,2013-01-05 21:06:00,
2013-01-05 16:11:00,44.6,24.5,30.47,NE,45,0.0,1.0,45,0.00,,,0.00,WUHU216HW,2013-01-05 21:11:00,
2013-01-05 16:16:00,44.6,24.5,30.46,NE,45,0.0,0.0,45,0.00,,,0.00,WUHU216HW,2013-01-05 21:16:00,
2013-01-05 16:21:00,44.5,24.3,30.46,NE,45,0.0,0.0,45,0.00,,,0.00,WUHU216HW,2013-01-05 21:21:00,
2013-01-05 16:26:00,44.3,24.7,30.46,NE,45,0.0,0.0,46,0.00,,,0.00,WUHU216HW,2013-01-05 21:26:00,
2013-01-05 16:31:00,44.1,24.6,30.46,NE,45,0.0,0.0,46,0.00,,,0.00,WUHU216HW,2013-01-05 21:31:00,
2013-01-05 16:36:00,43.7,24.2,30.46,NE,45,0.0,0.0,46,0.00,,,0.00,WUHU216HW,2013-01-05 21:36:00,
2013-01-05 16:41:00,43.6,24.0,30.46,NE,45,0.0,0.0,46,0.00,,,0.00,WUHU216HW,2013-01-05 21:41:00,
2013-01-05 16:46:00,43.2,24.3,30.45,NE,45,0.0,0.0,47,0.00,,,0.00,WUHU216HW,2013-01-05 21:46:00,
2013-01-05 16:51:00,42.8,23.9,30.45,NE,45,0.0,0.0,47,0.00,,,0.00,WUHU216HW,2013-01-05 21:51:00,
2013-01-05 16:56:00,42.3,23.9,30.44,NE,45,0.0,0.0,48,0.00,,,0.00,WUHU216HW,2013-01-05 21:56:00,
2013-01-05 17:01:00,41.4,23.6,30.45,West,270,0.0,0.0,49,0.00,,,0.00,WUHU216HW,2013-01-05 22:01:00,
2013-01-05 17:06:00,40.7,23.0,30.45,West,270,0.0,0.0,49,0.00,,,0.00,WUHU216HW,2013-01-05 22:06:00,
2013-01-05 17:11:00,40.0,22.8,30.45,West,270,0.0,0.0,50,0.00,,,0.00,WUHU216HW,2013-01-05 22:11:00,
2013-01-05 17:16:00,39.4,22.8,30.45,West,270,0.0,0.0,51,0.00,,,0.00,WUHU216HW,2013-01-05 22:16:00,
2013-01-05 17:21:00,38.7,23.0,30.45,West,270,0.0,0.0,53,0.00,,,0.00,WUHU216HW,2013-01-05 22:21:00,
2013-01-05 17:26:00,37.8,22.6,30.45,West,270,0.0,0.0,54,0.00,,,0.00,WUHU216HW,2013-01-05 22:26:00,
2013-01-05 17:31:00,37.3,22.1,30.45,West,270,0.0,0.0,54,0.00,,,0.00,WUHU216HW,2013-01-05 22:31:00,
2013-01-05 17:36:00,36.7,22.5,30.44,WNW,293,0.0,0.0,56,0.00,,,0.00,WUHU216HW,2013-01-05 22:36:00,
2013-01-05 17:41:00,36.4,22.6,30.44,WNW,293,0.0,0.0,57,0.00,,,0.00,WUHU216HW,2013-01-05 22:41:00,
2013-01-05 17:46:00,36.0,22.7,30.44,WNW,293,0.0,0.0,58,0.00,,,0.00,WUHU216HW,2013-01-05 22:46:00,
2013-01-05 17:51:00,35.5,22.1,30.45,WNW,293,0.0,0.0,58,0.00,,,0.00,WUHU216HW,2013-01-05 22:51:00,
2013-01-05 17:56:00,35.1,22.2,30.46,WNW,293,0.0,0.0,59,0.00,,,0.00,WUHU216HW,2013-01-05 22:56:00,
2013-01-05 18:01:00,34.7,21.9,30.45,NW,315,0.0,0.0,59,0.00,,,0.00,WUHU216HW,2013-01-05 23:01:00,
2013-01-05 18:06:00,34.6,21.7,30.45,NW,315,0.0,0.0,59,0.00,,,0.00,WUHU216HW,2013-01-05 23:06:00,
2013-01-05 18:11:00,34.2,21.8,30.45,NW,315,0.0,0.0,60,0.00,,,0.00,WUHU216HW,2013-01-05 23:11:00,
2013-01-05 18:16:00,33.8,21.4,30.45,NW,315,0.0,0.0,60,0.00,,,0.00,WUHU216HW,2013-01-05 23:16:00,
2013-01-05 18:21:00,33.7,21.6,30.45,NNW,338,0.0,0.0,61,0.00,,,0.00,WUHU216HW,2013-01-05 23:21:00,
2013-01-05 18:26:00,33.3,21.7,30.44,NE,45,0.0,0.0,62,0.00,,,0.00,WUHU216HW,2013-01-05 23:26:00,
2013-01-05 18:31:00,33.1,21.5,30.43,NE,45,0.0,0.0,62,0.00,,,0.00,WUHU216HW,2013-01-05 23:31:00,
2013-01-05 18:36:00,32.8,21.5,30.43,North,0,0.0,0.0,63,0.00,,,0.00,WUHU216HW,2013-01-05 23:36:00,
2013-01-05 18:41:00,32.6,21.7,30.43,WSW,248,0.0,0.0,64,0.00,,,0.00,WUHU216HW,2013-01-05 23:41:00,
2013-01-05 18:46:00,32.4,21.6,30.43,WSW,248,0.0,0.0,64,0.00,,,0.00,WUHU216HW,2013-01-05 23:46:00,
2013-01-05 18:51:00,32.2,21.4,30.43,WSW,248,0.0,0.0,64,0.00,,,0.00,WUHU216HW,2013-01-05 23:51:00,
2013-01-05 18:56:00,32.0,21.2,30.43,WSW,248,0.0,0.0,64,0.00,,,0.00,WUHU216HW,2013-01-05 23:56:00,
2013-01-05 19:01:00,32.0,21.6,30.43,WSW,248,0.0,0.0,65,0.00,,,0.00,WUHU216HW,2013-01-06 00:01:00,
2013-01-05 19:06:00,32.0,21.6,30.43,WSW,248,0.0,0.0,65,0.00,,,0.00,WUHU216HW,2013-01-06 00:06:00,
2013-01-05 19:11:00,31.7,21.6,30.44,West,270,0.0,0.0,66,0.00,,,0.00,WUHU216HW,2013-01-06 00:11:00,
2013-01-05 19:16:00,31.5,21.4,30.44,West,270,0.0,0.0,66,0.00,,,0.00,WUHU216HW,2013-01-06 00:16:00,
2013-01-05 19:21:00,31.5,21.4,30.44,NW,315,0.0,0.0,66,0.00,,,0.00,WUHU216HW,2013-01-06 00:21:00,
2013-01-05 19:26:00,31.3,21.2,30.44,NNW,338,0.0,0.0,66,0.00,,,0.00,WUHU216HW,2013-01-06 00:26:00,
2013-01-05 19:31:00,31.3,21.2,30.44,NNW,338,0.0,0.0,66,0.00,,,0.00,WUHU216HW,2013-01-06 00:31:00,
2013-01-05 19:36:00,31.3,21.2,30.43,NNW,338,0.0,0.0,66,0.00,,,0.00,WUHU216HW,2013-01-06 00:36:00,
2013-01-05 19:41:00,31.3,21.2,30.43,NNW,338,0.0,0.0,66,0.00,,,0.00,WUHU216HW,2013-01-06 00:41:00,
2013-01-05 19:46:00,31.1,21.4,30.43,NNW,338,0.0,0.0,67,0.00,,,0.00,WUHU216HW,2013-01-06 00:46:00,
2013-01-05 19:51:00,31.1,21.4,30.43,NNW,338,0.0,0.0,67,0.00,,,0.00,WUHU216HW,2013-01-06 00:51:00,
2013-01-05 19:56:00,31.0,21.2,30.42,NNW,338,0.0,0.0,67,0.00,,,0.00,WUHU216HW,2013-01-06 00:56:00,
2013-01-05 20:01:00,31.1,21.8,30.41,NNW,338,0.0,0.0,68,0.00,,,0.00,WUHU216HW,2013-01-06 01:01:00,
2013-01-05 20:06:00,31.1,21.8,30.41,NNW,338,0.0,0.0,68,0.00,,,0.00,WUHU216HW,2013-01-06 01:06:00,
2013-01-05 20:11:00,31.0,22.0,30.41,WNW,293,0.0,0.0,69,0.00,,,0.00,WUHU216HW,2013-01-06 01:11:00,
2013-01-05 20:16:00,31.1,22.1,30.41,WNW,293,0.0,0.0,69,0.00,,,0.00,WUHU216HW,2013-01-06 01:16:00,
2013-01-05 20:21:00,31.1,22.1,30.41,WNW,293,0.0,0.0,69,0.00,,,0.00,WUHU216HW,2013-01-06 01:21:00,
2013-01-05 20:26:00,31.3,22.3,30.41,WNW,293,0.0,0.0,69,0.00,,,0.00,WUHU216HW,2013-01-06 01:26:00,
2013-01-05 20:31:00,31.3,22.3,30.41,WNW,293,0.0,0.0,69,0.00,,,0.00,WUHU216HW,2013-01-06 01:31:00,
2013-01-05 20:36:00,31.3,22.3,30.40,WNW,293,0.0,0.0,69,0.00,,,0.00,WUHU216HW,2013-01-06 01:36:00,
2013-01-05 20:41:00,31.3,22.3,30.40,WNW,293,0.0,0.0,69,0.00,,,0.00,WUHU216HW,2013-01-06 01:41:00,
2013-01-05 20:46:00,31.3,22.3,30.40,WNW,293,0.0,0.0,69,0.00,,,0.00,WUHU216HW,2013-01-06 01:46:00,
2013-01-05 20:51:00,31.3,22.7,30.40,WNW,293,0.0,0.0,70,0.00,,,0.00,WUHU216HW,2013-01-06 01:51:00,
2013-01-05 20:56:00,31.3,22.7,30.40,WNW,293,0.0,0.0,70,0.00,,,0.00,WUHU216HW,2013-01-06 01:56:00,
2013-01-05 21:01:00,31.3,22.7,30.40,WNW,293,0.0,0.0,70,0.00,,,0.00,WUHU216HW,2013-01-06 02:01:00,
2013-01-05 21:06:00,31.3,22.7,30.41,NW,315,0.0,0.0,70,0.00,,,0.00,WUHU216HW,2013-01-06 02:06:00,
2013-01-05 21:11:00,31.3,22.7,30.41,NNW,338,0.0,0.0,70,0.00,,,0.00,WUHU216HW,2013-01-06 02:11:00,
2013-01-05 21:16:00,31.3,22.7,30.40,NNW,338,0.0,0.0,70,0.00,,,0.00,WUHU216HW,2013-01-06 02:16:00,
2013-01-05 21:21:00,31.3,22.7,30.40,NE,45,0.0,0.0,70,0.00,,,0.00,WUHU216HW,2013-01-06 02:21:00,
2013-01-05 21:26:00,31.3,22.7,30.40,NE,45,0.0,0.0,70,0.00,,,0.00,WUHU216HW,2013-01-06 02:26:00,
2013-01-05 21:31:00,31.7,23.4,30.41,SSW,203,0.0,0.0,71,0.00,,,0.00,WUHU216HW,2013-01-06 02:31:00,
2013-01-05 21:36:00,31.7,23.4,30.40,SSW,203,0.0,0.0,71,0.00,,,0.00,WUHU216HW,2013-01-06 02:36:00,
2013-01-05 21:41:00,31.7,23.4,30.40,SSW,203,0.0,0.0,71,0.00,,,0.00,WUHU216HW,2013-01-06 02:41:00,
2013-01-05 21:46:00,31.9,23.6,30.40,SSW,203,0.0,0.0,71,0.00,,,0.00,WUHU216HW,2013-01-06 02:46:00,
2013-01-05 21:51:00,31.9,23.6,30.39,SSW,203,0.0,0.0,71,0.00,,,0.00,WUHU216HW,2013-01-06 02:51:00,
2013-01-05 21:56:00,32.0,23.8,30.39,SSW,203,0.0,0.0,71,0.00,,,0.00,WUHU216HW,2013-01-06 02:56:00,
2013-01-05 22:01:00,32.0,23.8,30.39,SSW,203,0.0,0.0,71,0.00,,,0.00,WUHU216HW,2013-01-06 03:01:00,
2013-01-05 22:06:00,32.0,23.8,30.40,SSW,203,0.0,0.0,71,0.00,,,0.00,WUHU216HW,2013-01-06 03:06:00,
2013-01-05 22:11:00,32.0,23.8,30.39,SSW,203,0.0,0.0,71,0.00,,,0.00,WUHU216HW,2013-01-06 03:11:00,
2013-01-05 22:16:00,32.0,23.8,30.40,SSW,203,0.0,0.0,71,0.00,,,0.00,WUHU216HW,2013-01-06 03:16:00,
2013-01-05 22:21:00,32.2,23.9,30.39,SSW,203,0.0,0.0,71,0.00,,,0.00,WUHU216HW,2013-01-06 03:21:00,
2013-01-05 22:26:00,32.4,24.4,30.38,SSW,203,0.0,0.0,72,0.00,,,0.00,WUHU216HW,2013-01-06 03:26:00,
2013-01-05 22:31:00,32.4,24.4,30.39,West,270,0.0,0.0,72,0.00,,,0.00,WUHU216HW,2013-01-06 03:31:00,
2013-01-05 22:36:00,32.4,24.4,30.39,West,270,0.0,0.0,72,0.00,,,0.00,WUHU216HW,2013-01-06 03:36:00,
2013-01-05 22:41:00,32.4,24.4,30.38,West,270,0.0,0.0,72,0.00,,,0.00,WUHU216HW,2013-01-06 03:41:00,
2013-01-05 22:46:00,32.4,24.4,30.38,West,270,0.0,0.0,72,0.00,,,0.00,WUHU216HW,2013-01-06 03:46:00,
2013-01-05 22:51:00,32.4,24.4,30.37,West,270,0.0,0.0,72,0.00,,,0.00,WUHU216HW,2013-01-06 03:51:00,
2013-01-05 22:56:00,32.6,24.6,30.37,West,270,0.0,0.0,72,0.00,,,0.00,WUHU216HW,2013-01-06 03:56:00,
2013-01-05 23:01:00,32.6,24.6,30.37,West,270,0.0,0.0,72,0.00,,,0.00,WUHU216HW,2013-01-06 04:01:00,
2013-01-05 23:06:00,32.6,24.8,30.37,West,270,0.0,0.0,73,0.00,,,0.00,WUHU216HW,2013-01-06 04:06:00,
2013-01-05 23:11:00,32.8,25.0,30.36,West,270,0.0,0.0,73,0.00,,,0.00,WUHU216HW,2013-01-06 04:11:00,
2013-01-05 23:16:00,32.8,25.0,30.37,West,270,0.0,0.0,73,0.00,,,0.00,WUHU216HW,2013-01-06 04:16:00,
2013-01-05 23:21:00,32.8,25.0,30.38,West,270,0.0,0.0,73,0.00,,,0.00,WUHU216HW,2013-01-06 04:21:00,
2013-01-05 23:26:00,32.8,25.0,30.38,West,270,0.0,0.0,73,0.00,,,0.00,WUHU216HW,2013-01-06 04:26:00,
2013-01-05 23:31:00,32.8,25.0,30.37,West,270,0.0,0.0,73,0.00,,,0.00,WUHU216HW,2013-01-06 04:31:00,
2013-01-05 23:36:00,32.8,25.0,30.37,West,270,0.0,0.0,73,0.00,,,0.00,WUHU216HW,2013-01-06 04:36:00,
2013-01-05 23:41:00,32.9,25.2,30.37,West,270,0.0,0.0,73,0.00,,,0.00,WUHU216HW,2013-01-06 04:41:00,
2013-01-05 23:46:00,32.9,25.2,30.38,West,270,0.0,0.0,73,0.00,,,0.00,WUHU216HW,2013-01-06 04:46:00,
2013-01-05 23:51:00,32.9,25.2,30.38,West,270,0.0,0.0,73,0.00,,,0.00,WUHU216HW,2013-01-06 04:51:00,
2013-01-05 23:56:00,32.9,25.2,30.37,ESE,113,0.0,0.0,73,0.00,,,0.00,WUHU216HW,2013-01-06 04:56:00,